When you browse on this site, cookies collect data to enhance your experience and personalize the content and advertising you see.
Visit our Privacy Policy to learn more. By continuing to use the site, you agree to this use of cookies and data.
  • In Lithuania
  • List of Countries
  • For 7 days
  • Water Temperature
  • Satellite Maps
  • Weather Map
  • Weather Widgets
  • user-avatar
    Login

    Hourly Weather Gjirokaster

    Today, 26 March, Tuesday

    Time Temperature Precipitation Wind Pressure Humidity
    00:00 +5°C° 0 mm 1 mps 646 mmHg 79%
    01:00 +4°C° 0 mm 2 mps 646 mmHg 78%
    02:00 +4°C° 0 mm 2 mps 646 mmHg 78%
    03:00 +4°C° 0 mm 2 mps 646 mmHg 77%
    04:00 +4°C° 0 mm 2 mps 645 mmHg 76%
    05:00 +4°C° 0 mm 2 mps 646 mmHg 74%
    06:00 +5°C° 0 mm 2 mps 646 mmHg 72%
    07:00 +5°C° 0 mm 2 mps 646 mmHg 70%
    08:00 +8°C° 0 mm 1 mps 647 mmHg 63%
    09:00 +9°C° 0 mm 1 mps 647 mmHg 57%
    10:00 +11°C° 0 mm 1 mps 648 mmHg 50%
    11:00 +10°C° 0.2 mm 2 mps 648 mmHg 50%
    12:00 +12°C° 0.2 mm 2 mps 648 mmHg 50%
    13:00 +12°C° 0.2 mm 2 mps 648 mmHg 49%
    14:00 +12°C° 0.9 mm 2 mps 648 mmHg 54%
    15:00 +10°C° 0.9 mm 2 mps 648 mmHg 59%
    16:00 +9°C° 0.9 mm 2 mps 648 mmHg 64%
    17:00 +9°C° 0.7 mm 1 mps 648 mmHg 70%
    18:00 +8°C° 0.7 mm 1 mps 648 mmHg 75%
    19:00 +7°C° 0.7 mm 1 mps 648 mmHg 81%
    20:00 +7°C° 0.4 mm 1 mps 649 mmHg 82%
    21:00 +6°C° 0.4 mm 1 mps 649 mmHg 83%
    22:00 +6°C° 0.4 mm 1 mps 650 mmHg 84%
    23:00 +6°C° 0.2 mm 1 mps 650 mmHg 83%

    Tomorrow, 27 March, Wednesday

    Time Temperature Precipitation Wind Pressure Humidity
    00:00 +5°C° 0.2 mm 1 mps 650 mmHg 83%
    01:00 +5°C° 0.2 mm 1 mps 650 mmHg 83%
    02:00 +5°C° 0.1 mm 1 mps 650 mmHg 82%
    03:00 +3°C° 0.1 mm 2 mps 650 mmHg 80%
    04:00 +3°C° 0.1 mm 2 mps 650 mmHg 79%
    05:00 +3°C° 0 mm 2 mps 650 mmHg 76%
    06:00 +4°C° 0 mm 2 mps 650 mmHg 74%
    07:00 +4°C° 0 mm 2 mps 651 mmHg 71%
    08:00 +6°C° 0 mm 2 mps 651 mmHg 64%
    09:00 +7°C° 0 mm 2 mps 652 mmHg 58%
    10:00 +9°C° 0 mm 2 mps 652 mmHg 52%
    11:00 +9°C° 0.6 mm 2 mps 652 mmHg 54%
    12:00 +9°C° 0.6 mm 3 mps 652 mmHg 57%
    13:00 +9°C° 0.6 mm 3 mps 652 mmHg 59%
    14:00 +8°C° 1.8 mm 2 mps 652 mmHg 66%
    15:00 +7°C° 1.8 mm 2 mps 652 mmHg 72%
    16:00 +7°C° 1.8 mm 1 mps 651 mmHg 79%
    17:00 +6°C° 1.4 mm 1 mps 651 mmHg 82%
    18:00 +6°C° 1.4 mm 1 mps 651 mmHg 84%
    19:00 +5°C° 1.4 mm 1 mps 651 mmHg 87%
    20:00 +5°C° 0.9 mm 1 mps 652 mmHg 87%
    21:00 +5°C° 0.9 mm 1 mps 652 mmHg 87%
    22:00 +5°C° 0.9 mm 1 mps 652 mmHg 87%
    23:00 +5°C° 0.4 mm 1 mps 652 mmHg 87%

    Day after tomorrow, 28 March, Thursday

    Time Temperature Precipitation Wind Pressure Humidity
    00:00 +5°C° 0.4 mm 1 mps 652 mmHg 86%
    01:00 +4°C° 0.4 mm 1 mps 651 mmHg 85%
    02:00 +3°C° 0.2 mm 2 mps 651 mmHg 83%
    03:00 +3°C° 0.2 mm 2 mps 651 mmHg 81%
    04:00 +2°C° 0.2 mm 2 mps 651 mmHg 80%
    05:00 +2°C° 0.1 mm 2 mps 651 mmHg 77%
    06:00 +2°C° 0.1 mm 2 mps 652 mmHg 75%
    07:00 +1°C° 0.1 mm 3 mps 652 mmHg 72%
    08:00 +2°C° 0.1 mm 3 mps 652 mmHg 69%
    09:00 +3°C° 0.1 mm 3 mps 653 mmHg 65%
    10:00 +4°C° 0.1 mm 3 mps 653 mmHg 61%
    11:00 +5°C° 0 mm 3 mps 654 mmHg 58%
    12:00 +7°C° 0 mm 2 mps 654 mmHg 55%
    13:00 +8°C° 0 mm 2 mps 654 mmHg 52%
    14:00 +7°C° 0 mm 2 mps 654 mmHg 52%
    15:00 +7°C° 0 mm 2 mps 654 mmHg 53%
    16:00 +7°C° 0 mm 2 mps 654 mmHg 53%
    17:00 +6°C° 0 mm 2 mps 653 mmHg 58%
    18:00 +5°C° 0 mm 2 mps 653 mmHg 63%
    19:00 +3°C° 0 mm 2 mps 653 mmHg 68%
    20:00 +3°C° 0 mm 2 mps 653 mmHg 69%
    21:00 +2°C° 0 mm 2 mps 653 mmHg 71%
    22:00 +1°C° 0 mm 2 mps 654 mmHg 73%
    23:00 +1°C° 0 mm 2 mps 654 mmHg 74%

    29 March, Friday

    Time Temperature Precipitation Wind Pressure Humidity
    00:00 +1°C° 0 mm 2 mps 654 mmHg 75%
    01:00 -1°C° 0 mm 2 mps 654 mmHg 75%
    02:00 -1°C° 0 mm 2 mps 654 mmHg 75%
    03:00 -1°C° 0 mm 2 mps 654 mmHg 75%
    04:00 -1°C° 0 mm 2 mps 654 mmHg 76%
    05:00 -1°C° 0 mm 2 mps 654 mmHg 74%
    06:00 +1°C° 0 mm 2 mps 655 mmHg 72%
    07:00 +2°C° 0 mm 2 mps 655 mmHg 71%
    08:00 +3°C° 0 mm 2 mps 655 mmHg 62%
    09:00 +4°C° 0 mm 2 mps 656 mmHg 54%
    10:00 +6°C° 0 mm 2 mps 657 mmHg 46%
    11:00 +6°C° 0 mm 2 mps 656 mmHg 43%
    12:00 +7°C° 0 mm 2 mps 656 mmHg 40%
    13:00 +8°C° 0 mm 2 mps 656 mmHg 37%
    14:00 +8°C° 0 mm 2 mps 656 mmHg 37%
    15:00 +8°C° 0 mm 2 mps 656 mmHg 37%
    16:00 +8°C° 0 mm 2 mps 655 mmHg 37%
    17:00 +6°C° 0 mm 2 mps 655 mmHg 42%
    18:00 +5°C° 0 mm 2 mps 655 mmHg 46%
    19:00 +3°C° 0 mm 2 mps 654 mmHg 50%
    20:00 +3°C° 0 mm 2 mps 655 mmHg 51%
    21:00 +2°C° 0 mm 2 mps 655 mmHg 52%
    22:00 +2°C° 0 mm 2 mps 655 mmHg 53%
    23:00 +1°C° 0 mm 2 mps 655 mmHg 54%

    30 March, Saturday

    Time Temperature Precipitation Wind Pressure Humidity
    00:00 +1°C° 0 mm 2 mps 654 mmHg 55%
    01:00 +1°C° 0 mm 2 mps 654 mmHg 56%
    02:00 -1°C° 0 mm 2 mps 654 mmHg 56%
    03:00 -1°C° 0 mm 2 mps 654 mmHg 57%
    04:00 -2°C° 0 mm 2 mps 654 mmHg 58%
    05:00 -1°C° 0 mm 2 mps 654 mmHg 58%
    06:00 +1°C° 0 mm 2 mps 654 mmHg 58%
    07:00 +1°C° 0 mm 2 mps 654 mmHg 57%
    08:00 +3°C° 0 mm 2 mps 654 mmHg 50%
    09:00 +5°C° 0 mm 2 mps 655 mmHg 43%
    10:00 +6°C° 0 mm 2 mps 655 mmHg 35%
    11:00 +7°C° 0 mm 2 mps 655 mmHg 35%
    12:00 +8°C° 0 mm 2 mps 655 mmHg 34%
    13:00 +9°C° 0 mm 2 mps 654 mmHg 34%
    14:00 +9°C° 0 mm 3 mps 654 mmHg 35%
    15:00 +9°C° 0 mm 3 mps 654 mmHg 37%
    16:00 +9°C° 0 mm 3 mps 653 mmHg 39%
    17:00 +8°C° 0 mm 3 mps 653 mmHg 47%
    18:00 +5°C° 0 mm 3 mps 652 mmHg 56%
    19:00 +3°C° 0 mm 3 mps 652 mmHg 64%
    20:00 +3°C° 0 mm 3 mps 652 mmHg 64%
    21:00 +2°C° 0 mm 3 mps 652 mmHg 65%
    22:00 +3°C° 0 mm 2 mps 652 mmHg 65%
    23:00 +3°C° 0 mm 2 mps 651 mmHg 63%

    31 March, Sunday

    Time Temperature Precipitation Wind Pressure Humidity
    00:00 +2°C° 0 mm 2 mps 651 mmHg 61%
    01:00 +2°C° 0 mm 2 mps 651 mmHg 59%
    02:00 +2°C° 0 mm 2 mps 650 mmHg 59%
    03:00 +2°C° 0 mm 2 mps 650 mmHg 59%
    04:00 +2°C° 0 mm 1 mps 650 mmHg 59%
    05:00 +3°C° 0 mm 1 mps 650 mmHg 59%
    06:00 +4°C° 0 mm 1 mps 650 mmHg 59%
    07:00 +4°C° 0 mm 1 mps 650 mmHg 60%
    08:00 +6°C° 0 mm 1 mps 650 mmHg 54%
    09:00 +8°C° 0 mm 1 mps 651 mmHg 48%
    10:00 +10°C° 0 mm 1 mps 651 mmHg 43%
    11:00 +10°C° 0 mm 1 mps 651 mmHg 43%
    12:00 +10°C° 0 mm 2 mps 651 mmHg 43%
    13:00 +10°C° 0 mm 3 mps 650 mmHg 43%
    14:00 +10°C° 0 mm 3 mps 650 mmHg 46%
    15:00 +10°C° 0 mm 3 mps 650 mmHg 50%
    16:00 +9°C° 0 mm 3 mps 649 mmHg 54%
    17:00 +8°C° 0 mm 3 mps 649 mmHg 61%
    18:00 +5°C° 0 mm 3 mps 648 mmHg 68%
    19:00 +4°C° 0 mm 2 mps 648 mmHg 75%
    20:00 +4°C° 0 mm 2 mps 648 mmHg 75%
    21:00 +3°C° 0 mm 2 mps 648 mmHg 74%
    22:00 +4°C° 0 mm 1 mps 648 mmHg 74%
    23:00 +4°C° 0 mm 1 mps 648 mmHg 73%
    Show more